Cloud_Cover
100 100 100 100 100 100 100 100 100 100 100 100 100 100 100 100 100 100 100 100 100 92 100 100 100 100 100 100 100 92 100 100 100 90 5 36 99 55 57 100 14 6 9 5 7
100 100 100 100 100 100 100 100 100 100 100 100 100 100 100 100 100 100 100 100 100 59 71 100 100 100 100 100 100 100 100 97 100 100 5 60 100 72 6 70 66 5 35 5 5
100 100 100 100 100 100 100 100 100 83 99 100 100 100 100 100 96 88 100 100 100 100 100 98 100 100 100 100 100 100 100 89 100 100 64 16 54 67 76 100 91 18 5 49 23
100 100 100 100 100 100 100 100 100 100 100 100 100 100 100 100 68 96 100 100 100 100 100 100 100 100 100 100 100 100 100 89 84 100 100 10 62 100 61 42 56 65 9 31 6
100 100 100 100 100 100 100 100 100 98 90 88 100 100 100 100 76 100 100 100 99 100 100 100 100 100 100 100 100 100 100 100 100 100 100 72 41 100 82 48 6 58 70 71 51
100 100 100 100 100 100 100 100 100 100 100 100 95 100 100 100 100 100 100 100 100 100 96 100 100 100 99 100 99 100 100 100 100 100 100 100 44 98 87 59 5 9 98 100 100
100 100 100 100 100 100 100 100 100 100 98 91 80 98 100 100 100 100 100 100 90 100 100 92 87 100 100 75 100 100 31 75 100 100 100 100 100 100 10 58 98 40 48 14 68
100 100 100 100 100 100 100 100 100 100 100 77 88 59 93 100 100 100 100 100 100 100 90 97 66 90 100 100 100 100 93 11 100 100 100 100 100 100 100 100 100 100 39 5 86
100 100 100 100 100 100 100 100 100 100 100 100 100 40 65 100 100 100 100 100 100 100 100 100 73 86 95 100 100 100 100 88 100 100 33 100 100 100 100 100 100 100 100 100 36
100 100 100 100 100 100 100 100 100 100 97 100 43 57 64 79 100 100 100 100 100 100 100 100 97 100 100 100 100 100 100 99 100 100 99 73 100 100 100 100 100 100 100 100 100
100 100 100 100 100 100 100 100 100 100 100 100 41 100 100 100 93 100 100 100 100 100 100 100 100 91 100 100 100 100 100 100 100 100 31 84 100 100 100 100 100 100 100 100 100
100 100 100 100 100 100 100 100 100 100 100 100 100 100 100 100 100 61 85 100 100 100 78 7 84 100 39 68 76 95 100 100 100 100 99 94 100 100 100 100 100 100 100 98 99
100 100 100 100 100 100 100 100 100 100 100 92 90 71 100 63 46 18 5 41 100 100 94 28 45 100 96 96 38 99 100 100 100 100 100 100 98 93 100 100 100 100 100 100 100
100 100 100 100 100 100 100 100 100 100 100 81 98 100 100 99 5 23 5 23 95 100 100 5 43 96 68 66 88 71 95 96 100 100 100 45 100 100 100 100 100 100 100 100 100
100 100 100 100 100 100 100 100 100 100 100 100 100 100 100 100 100 22 22 6 11 88 100 100 100 100 11 90 99 33 74 30 5 93 97 100 86 100 100 100 100 100 100 100 100
100 100 100 100 100 100 100 100 100 100 100 73 87 91 99 99 100 99 9 36 31 25 86 100 100 100 100 99 100 97 100 76 11 48 30 99 100 100 100 100 100 100 100 100 100
100 100 100 100 100 100 100 100 100 100 100 100 100 100 92 100 100 100 72 53 33 43 82 100 100 100 100 100 100 100 97 89 52 80 96 82 100 100 100 100 100 100 100 100 100
100 100 100 100 100 100 100 100 100 100 100 100 71 100 100 100 73 97 100 37 8 5 27 60 99 100 100 100 100 100 100 85 8 96 58 100 100 100 100 100 100 100 100 100 100
100 100 100 100 100 100 100 100 99 7 27 78 99 100 100 100 97 99 99 100 62 84 59 46 66 100 100 100 100 100 100 100 67 5 92 100 97 100 100 100 100 100 100 100 100
100 100 100 100 100 100 100 100 97 5 5 5 70 100 100 100 100 100 100 100 100 48 79 99 77 92 100 100 100 100 100 100 100 39 47 98 100 100 100 100 100 100 100 100 100
48 100 100 100 100 100 100 100 90 20 5 5 6 94 99 100 96 100 100 99 99 99 63 62 93 77 79 100 100 100 100 100 100 100 100 100 97 100 100 100 97 82 95 98 100
100 100 100 100 100 100 100 100 100 96 7 5 5 5 100 100 100 100 92 100 100 100 87 56 86 100 99 90 100 100 100 100 100 100 100 100 100 100 100 100 100 100 98 100 100
100 100 100 100 100 100 100 100 100 97 7 5 5 5 98 100 96 56 23 56 100 100 100 96 97 100 100 98 83 100 100 100 100 100 100 100 100 100 100 100 100 100 100 100 100
100 100 100 100 100 100 100 100 100 100 100 28 84 91 99 100 20 18 8 50 90 100 100 100 100 100 56 100 100 100 100 100 100 100 100 100 100 100 100 100 100 97 53 45 50
100 100 100 100 100 100 100 100 100 100 100 99 100 76 39 52 5 65 31 24 62 91 100 100 100 100 100 100 100 100 100 100 100 100 100 100 100 100 100 100 100 100 99 29 35
100 100 100 100 100 100 100 100 100 100 100 14 5 5 5 17 86 100 100 99 87 100 100 100 100 100 100 100 100 100 100 100 100 100 100 100 100 100 100 100 100 74 5 5 48
100 100 100 100 100 100 100 100 100 100 100 100 100 100 98 100 100 100 100 100 95 100 100 100 100 100 100 100 100 100 100 100 100 100 100 100 100 100 100 100 100 100 98 20 24